Lufkin, TX

6:39 AM CDT on June 23, 2017 (GMT -0500)
Angelina County

Weather History for KLFK - January, 2014

Change the Weather History Date:

Sunday, January 5, 2014

  Actual Average Record
Temperature  
Mean Temperature 46 °F 48 °F  
Max Temperature 62 °F 59 °F 80 °F (1921)
Min Temperature 29 °F 38 °F 17 °F (1924)
Degree Days  
Heating Degree Days 19 17  
Month to date heating degree days 95 85  
Since 1 July heating degree days 966 863  
Cooling Degree Days 0 0  
Month to date cooling degree days 0 0  
Year to date cooling degree days 0 0  
Moisture  
Dew Point 40 °F    
Average Humidity 68    
Maximum Humidity 90    
Minimum Humidity 45    
Precipitation  
Precipitation 0.07 in 0.14 in 7.44 in (1929)
Month to date precipitation 0.07 0.66  
Year to date precipitation 0.07 0.66  
Snow  
Snow 0.00 in - - ()
Month to date snowfall 0.0  
Since 1 July snowfall T  
Snow Depth 0.00 in    
Sea Level Pressure  
Sea Level Pressure 30.00 in    
Wind  
Wind Speed 11 mph (WNW)    
Max Wind Speed 21 mph    
Max Gust Speed 30 mph    
Visibility 8 miles    
Events Rain    
T = Trace of Precipitation, MM = Missing Value Source: NWS Daily Summary

Daily Weather History Graph

Daily Weather History Graph

Search for Another Location

Airport or City:

Trip Planner

Search our weather history database for the weather conditions in past years. The results will help you decide how hot, cold, wet, or windy it might be!

Date:

Astronomy

Jan. 05, 2014 Rise Set
Actual Time 7:18 AM CST 5:30 PM CST
Civil Twilight 6:51 AM CST 5:57 PM CST
Nautical Twilight 6:21 AM CST 6:27 PM CST
Astronomical Twilight 5:52 AM CST 6:56 PM CST
Moon 10:20 AM CST (1/5) 10:37 PM CST (1/5)
Length of Visible Light 11h 05m
Length of Day
10h 12m
Waxing Crescent, 25% of the Moon is Illuminated
Jan 5
Waxing Crescent
Jan 7
First Quarter
Jan 15
Full
Jan 23
Last Quarter
Jan 30
New

Hourly Weather History & Observations

Time (CST) Temp. Windchill Dew Point Humidity Pressure Visibility Wind Dir Wind Speed Gust Speed Precip Events Conditions
12:53 AM 59.0 °F - 53.1 °F 81% 29.86 in 10.0 mi SSE 12.7 mph - N/A   Overcast
1:50 AM 59.0 °F - 53.6 °F 82% 29.84 in 10.0 mi SSE 11.5 mph - N/A   Overcast
1:53 AM 59.0 °F - 54.0 °F 83% 29.84 in 10.0 mi SSE 12.7 mph - N/A   Mostly Cloudy
2:09 AM 59.0 °F - 53.6 °F 82% 29.84 in 10.0 mi SSE 10.4 mph - N/A   Overcast
2:53 AM 60.1 °F - 54.0 °F 80% 29.82 in 10.0 mi SSE 11.5 mph - N/A   Overcast
3:53 AM 60.1 °F - 55.0 °F 83% 29.83 in 10.0 mi South 5.8 mph - N/A   Overcast
4:53 AM 61.0 °F - 55.0 °F 81% 29.80 in 10.0 mi SSE 6.9 mph - N/A   Overcast
5:53 AM 61.0 °F - 55.9 °F 83% 29.83 in 7.0 mi NNW 3.5 mph - 0.01 in Rain Light Rain
6:07 AM 60.8 °F - 57.2 °F 88% 29.84 in 2.5 mi Calm Calm - 0.03 in Rain Rain
6:20 AM 60.8 °F - 57.2 °F 88% 29.84 in 4.0 mi Calm Calm - 0.05 in Rain Light Rain
6:35 AM 60.8 °F - 57.2 °F 88% 29.84 in 7.0 mi SSE 3.5 mph - 0.05 in Rain Light Rain
6:53 AM 60.1 °F - 57.0 °F 90% 29.84 in 8.0 mi SW 3.5 mph - 0.05 in Rain Light Rain
7:42 AM 62.6 °F - 57.2 °F 82% 29.86 in 5.0 mi SW 5.8 mph - 0.00 in   Overcast
7:51 AM 62.6 °F - 57.2 °F 82% 29.86 in 5.0 mi WSW 5.8 mph - 0.00 in   Overcast
7:53 AM 62.1 °F - 59.0 °F 90% 29.86 in 5.0 mi WSW 5.8 mph - 0.00 in   Overcast
8:04 AM 62.6 °F - 59.0 °F 88% 29.88 in 6.0 mi West 15.0 mph 23.0 mph N/A   Overcast
8:18 AM 53.6 °F - 48.2 °F 82% 29.91 in 8.0 mi NW 15.0 mph 29.9 mph 0.00 in Rain Light Rain
8:53 AM 45.0 °F 38.5 °F 41.0 °F 86% 29.96 in 2.5 mi NW 13.8 mph 23.0 mph 0.01 in Rain Light Rain
9:01 AM 44.6 °F 38.8 °F 39.2 °F 81% 29.97 in 4.0 mi WNW 11.5 mph 26.5 mph 0.00 in Rain Light Rain
9:14 AM 42.8 °F 35.8 °F 39.2 °F 87% 29.98 in 5.0 mi NW 13.8 mph 24.2 mph 0.00 in   Overcast
9:33 AM 42.8 °F 35.8 °F 37.4 °F 81% 30.00 in 6.0 mi NW 13.8 mph 24.2 mph 0.00 in Rain Light Rain
9:53 AM 42.1 °F 36.1 °F 36.0 °F 79% 30.01 in 7.0 mi NW 10.4 mph 21.9 mph 0.00 in   Overcast
10:35 AM 42.8 °F 34.8 °F 33.8 °F 70% 30.03 in 9.0 mi NW 17.3 mph 27.6 mph N/A   Overcast
10:53 AM 43.0 °F 35.7 °F 33.1 °F 68% 30.04 in 9.0 mi WNW 15.0 mph 27.6 mph N/A   Overcast
11:53 AM 45.0 °F 37.9 °F 33.1 °F 63% 30.04 in 10.0 mi WNW 16.1 mph 25.3 mph N/A   Clear
12:53 PM 46.0 °F 39.3 °F 30.9 °F 56% 30.04 in 10.0 mi NW 16.1 mph 27.6 mph N/A   Clear
1:53 PM 46.0 °F 39.0 °F 28.0 °F 50% 30.05 in 10.0 mi NNW 17.3 mph 25.3 mph N/A   Clear
2:53 PM 46.0 °F 39.3 °F 26.1 °F 46% 30.08 in 10.0 mi NW 16.1 mph 25.3 mph N/A   Clear
3:53 PM 45.0 °F 38.9 °F 24.1 °F 44% 30.11 in 10.0 mi NW 12.7 mph 20.7 mph N/A   Clear
4:53 PM 43.0 °F 37.2 °F 23.0 °F 45% 30.15 in 10.0 mi NNW 10.4 mph 20.7 mph N/A   Clear
5:53 PM 39.0 °F 32.3 °F 21.0 °F 49% 30.19 in 10.0 mi NNW 10.4 mph 17.3 mph N/A   Clear
6:53 PM 37.9 °F 31.5 °F 21.0 °F 51% 30.23 in 10.0 mi NW 9.2 mph 17.3 mph N/A   Clear
7:53 PM 36.0 °F 27.5 °F 19.0 °F 50% 30.27 in 10.0 mi NNW 12.7 mph 26.5 mph N/A   Clear
8:53 PM 34.0 °F 26.0 °F 18.0 °F 52% 30.32 in 10.0 mi NNW 10.4 mph 24.2 mph N/A   Clear
9:53 PM 32.0 °F 23.6 °F 17.1 °F 54% 30.37 in 10.0 mi NNW 10.4 mph 19.6 mph N/A   Clear
10:53 PM 30.9 °F 21.2 °F 17.1 °F 57% 30.41 in 10.0 mi NNW 12.7 mph 21.9 mph N/A   Clear
11:53 PM 28.9 °F 20.4 °F 16.0 °F 58% 30.43 in 10.0 mi North 9.2 mph 17.3 mph N/A   Clear